This is the latest recevied weather packets stored in our database for station/object E24CR-1. If no packets are shown the sender has not sent any weather packets the latest 10 day(s).
| Time | Temp. | Humidity | Pressure | Rain* | Wind** | Luminosity | Snow |
|---|---|---|---|---|---|---|---|
| 1777431404 | 31.67° C | 46% | 953 hPa | - | - | 0 W/m² | - |
| 1777430779 | 31.11° C | 47% | 953 hPa | - | - | 0 W/m² | - |
| 1777430154 | 31.67° C | 47% | 953 hPa | - | - | 0 W/m² | - |
| 1777429530 | 30° C | 52% | 953 hPa | - | - | 0 W/m² | - |
| 1777428905 | 28.89° C | 56% | 953 hPa | - | - | 0 W/m² | - |
| 1777428279 | 29.44° C | 52% | 953 hPa | - | - | 0 W/m² | - |
| 1777427655 | 31.11° C | 51% | 953 hPa | - | - | 0 W/m² | - |
| 1777427030 | 28.89° C | 56% | 953 hPa | - | - | 0 W/m² | - |
| 1777426405 | 28.33° C | 58% | 953 hPa | - | - | 0 W/m² | - |
| 1777425779 | 27.22° C | 62% | 952 hPa | - | - | 0 W/m² | - |
| 1777425154 | 26.67° C | 65% | 952 hPa | - | - | 0 W/m² | - |
| 1777424529 | 26.11° C | 68% | 952 hPa | - | - | 0 W/m² | - |
| 1777423905 | 25.56° C | 70% | 952 hPa | - | - | 0 W/m² | - |
| 1777423279 | 25° C | 70% | 952 hPa | - | - | 0 W/m² | - |
| 1777422653 | 25.56° C | 67% | 952 hPa | - | - | 0 W/m² | - |
| 1777422028 | 24.44° C | 70% | 952 hPa | - | - | 0 W/m² | - |
| 1777421402 | 26.11° C | 63% | 952 hPa | - | - | 0 W/m² | - |
| 1777420774 | 26.11° C | 67% | 952 hPa | - | - | 0 W/m² | - |
| 1777420144 | 25.56° C | 68% | 951 hPa | - | - | 0 W/m² | - |
| 1777419518 | 24.44° C | 68% | 951 hPa | - | - | 0 W/m² | - |
| 1777418893 | 23.89° C | 73% | 951 hPa | - | - | 0 W/m² | - |
| 1777418268 | 24.44° C | 68% | 951 hPa | - | - | 0 W/m² | - |
| 1777417642 | 23.89° C | 69% | 951 hPa | - | - | 0 W/m² | - |
| 1777417017 | 23.89° C | 68% | 951 hPa | - | - | 0 W/m² | - |
| 1777416392 | 24.44° C | 68% | 951 hPa | - | - | 0 W/m² | - |
* Rain since midnight (hover to see other rain measurements)
** Current wind speed in m/s (hover to see current wind gust speed)